Location: Guferjoch
(46.7462°N, 8.4506°E)
Time: 13:21:03
(UTC+00:00)

Cosmos 1763 Rocket - Pass Details

Date: 14 July 2020
Orbit: 732 x 781 km, 74.0° (Epoch: 06 August)

Event Time Altitude Azimuth Distance (km) Brightness Sun altitude
Rises 02:22:23 0° 337° (NNW) 3,240 7.1 -11.6°
Reaches altitude 10° 02:24:46 10° 338° (NNW) 2,317 6.4 -11.3°
Maximum altitude 02:30:03 89° 67° (ENE) 781 3.6 -10.7°
Drops below altitude 10° 02:35:21 10° 159° (SSE) 2,323 5.7 -10.1°
Sets 02:37:43 0° 160° (SSE) 3,250 6.5 -9.8°
